Back to catalog

STARLINK-30873

AliveCommunicationsVLEO
NORAD 58249·PAYLOAD·🇺🇸 United States

Launched Nov 8, 2023 from Cape Canaveral Space Force Station

Loading…

Next Passes (next 24 hours)

TLE

FreshSource: CelesTrak SupGP

Epoch: Sep 14, 2026, 22:25 UTC

1 58249C 23171V   26257.93451389  .00011695  00000+0  42355-3 0  2576
2 58249  43.0025 296.4527 0001962 272.0360 222.5588 15.27575481    15

Track STARLINK-30873 in real time with AllMySat

Download on the App Store